• In Switzerland
  • List of Countries
  • For 7 days
  • Water Temperature
  • Satellite Maps
  • Weather Map
  • Weather Widgets
  • user-avatar
    Login

    Hourly Weather Lososin

    Today, 22 September, Saturday

    Time Temperature Precipitation Wind Pressure Humidity
    00:00 +19°C° 0 mm 5 mps 744 mmHg 73%
    01:00 +19°C° 0 mm 5 mps 743 mmHg 73%
    02:00 +18°C° 0 mm 4 mps 743 mmHg 74%
    03:00 +18°C° 0 mm 4 mps 743 mmHg 74%
    04:00 +18°C° 0 mm 4 mps 743 mmHg 74%
    05:00 +17°C° 0 mm 4 mps 743 mmHg 74%
    06:00 +16°C° 0.4 mm 5 mps 743 mmHg 77%
    07:00 +16°C° 0.4 mm 5 mps 744 mmHg 80%
    08:00 +15°C° 0.4 mm 6 mps 744 mmHg 84%
    09:00 +14°C° 0.5 mm 6 mps 745 mmHg 83%
    10:00 +14°C° 0.5 mm 5 mps 746 mmHg 82%
    11:00 +13°C° 0.5 mm 5 mps 746 mmHg 82%
    12:00 +13°C° 0.3 mm 4 mps 747 mmHg 80%
    13:00 +13°C° 0.3 mm 4 mps 747 mmHg 78%
    14:00 +13°C° 0.3 mm 3 mps 747 mmHg 76%
    15:00 +13°C° 0 mm 3 mps 747 mmHg 75%
    16:00 +13°C° 0 mm 3 mps 747 mmHg 74%
    17:00 +13°C° 0 mm 3 mps 747 mmHg 73%
    18:00 +12°C° 0 mm 3 mps 747 mmHg 76%
    19:00 +11°C° 0 mm 3 mps 747 mmHg 80%
    20:00 +10°C° 0 mm 3 mps 747 mmHg 83%
    21:00 +10°C° 0 mm 3 mps 747 mmHg 83%
    22:00 +9°C° 0 mm 3 mps 747 mmHg 84%
    23:00 +9°C° 0 mm 3 mps 747 mmHg 84%

    Tomorrow, 23 September, Sunday

    Time Temperature Precipitation Wind Pressure Humidity
    00:00 +9°C° 0 mm 3 mps 747 mmHg 85%
    01:00 +8°C° 0 mm 3 mps 747 mmHg 85%
    02:00 +8°C° 0 mm 3 mps 747 mmHg 86%
    03:00 +8°C° 0 mm 3 mps 747 mmHg 87%
    04:00 +8°C° 0 mm 3 mps 747 mmHg 87%
    05:00 +8°C° 0 mm 3 mps 747 mmHg 88%
    06:00 +7°C° 0 mm 4 mps 747 mmHg 85%
    07:00 +8°C° 0 mm 4 mps 747 mmHg 82%
    08:00 +10°C° 0 mm 4 mps 747 mmHg 80%
    09:00 +12°C° 0 mm 5 mps 747 mmHg 72%
    10:00 +13°C° 0 mm 5 mps 747 mmHg 65%
    11:00 +15°C° 0 mm 6 mps 747 mmHg 58%
    12:00 +15°C° 0.3 mm 6 mps 746 mmHg 59%
    13:00 +15°C° 0.3 mm 6 mps 746 mmHg 61%
    14:00 +15°C° 0.3 mm 6 mps 746 mmHg 62%
    15:00 +14°C° 0.1 mm 5 mps 745 mmHg 65%
    16:00 +14°C° 0.1 mm 4 mps 745 mmHg 68%
    17:00 +14°C° 0.1 mm 4 mps 745 mmHg 71%
    18:00 +12°C° 0 mm 3 mps 745 mmHg 75%
    19:00 +11°C° 0 mm 3 mps 744 mmHg 80%
    20:00 +10°C° 0 mm 2 mps 744 mmHg 84%
    21:00 +10°C° 0.2 mm 2 mps 744 mmHg 86%
    22:00 +10°C° 0.2 mm 2 mps 743 mmHg 87%
    23:00 +10°C° 0.2 mm 2 mps 743 mmHg 89%

    Day after tomorrow, 24 September, Monday

    Time Temperature Precipitation Wind Pressure Humidity
    00:00 +10°C° 2.3 mm 2 mps 741 mmHg 92%
    01:00 +10°C° 2.3 mm 3 mps 740 mmHg 94%
    02:00 +10°C° 2.3 mm 3 mps 739 mmHg 96%
    03:00 +10°C° 1.9 mm 3 mps 737 mmHg 96%
    04:00 +10°C° 1.9 mm 4 mps 736 mmHg 95%
    05:00 +10°C° 1.9 mm 4 mps 735 mmHg 94%
    06:00 +9°C° 2.5 mm 5 mps 734 mmHg 94%
    07:00 +9°C° 2.5 mm 6 mps 734 mmHg 94%
    08:00 +9°C° 2.5 mm 7 mps 733 mmHg 94%
    09:00 +7°C° 1.5 mm 8 mps 734 mmHg 91%
    10:00 +7°C° 1.5 mm 9 mps 735 mmHg 87%
    11:00 +7°C° 1.5 mm 9 mps 736 mmHg 84%
    12:00 +8°C° 0.2 mm 9 mps 738 mmHg 80%
    13:00 +10°C° 0.2 mm 9 mps 739 mmHg 75%
    14:00 +11°C° 0.2 mm 8 mps 740 mmHg 71%
    15:00 +11°C° 0.3 mm 8 mps 741 mmHg 72%
    16:00 +11°C° 0.3 mm 7 mps 742 mmHg 73%
    17:00 +10°C° 0.3 mm 6 mps 742 mmHg 74%
    18:00 +9°C° 0.2 mm 6 mps 743 mmHg 77%
    19:00 +8°C° 0.2 mm 6 mps 743 mmHg 79%
    20:00 +8°C° 0.2 mm 5 mps 744 mmHg 82%
    21:00 +7°C° 0.4 mm 6 mps 744 mmHg 84%
    22:00 +7°C° 0.4 mm 6 mps 745 mmHg 85%
    23:00 +6°C° 0.4 mm 7 mps 746 mmHg 86%

    25 September, Tuesday

    Time Temperature Precipitation Wind Pressure Humidity
    00:00 +5°C° 0.1 mm 6 mps 747 mmHg 86%
    01:00 +4°C° 0.1 mm 6 mps 748 mmHg 87%
    02:00 +4°C° 0.1 mm 6 mps 749 mmHg 87%
    03:00 +3°C° 0 mm 6 mps 749 mmHg 87%
    04:00 +3°C° 0 mm 6 mps 750 mmHg 87%
    05:00 +2°C° 0 mm 6 mps 751 mmHg 87%
    06:00 +3°C° 0 mm 6 mps 751 mmHg 84%
    07:00 +3°C° 0 mm 6 mps 752 mmHg 81%
    08:00 +4°C° 0 mm 7 mps 752 mmHg 78%
    09:00 +5°C° 0 mm 7 mps 753 mmHg 72%
    10:00 +8°C° 0 mm 7 mps 753 mmHg 67%
    11:00 +9°C° 0 mm 8 mps 754 mmHg 61%
    12:00 +9°C° 0.2 mm 8 mps 754 mmHg 60%
    13:00 +9°C° 0.2 mm 8 mps 754 mmHg 58%
    14:00 +10°C° 0.2 mm 8 mps 754 mmHg 57%
    15:00 +9°C° 0.1 mm 7 mps 755 mmHg 60%
    16:00 +9°C° 0.1 mm 6 mps 755 mmHg 63%
    17:00 +8°C° 0.1 mm 6 mps 755 mmHg 66%
    18:00 +7°C° 0 mm 5 mps 756 mmHg 68%
    19:00 +6°C° 0 mm 5 mps 757 mmHg 71%
    20:00 +5°C° 0 mm 4 mps 758 mmHg 73%
    21:00 +5°C° 0 mm 4 mps 758 mmHg 73%
    22:00 +5°C° 0 mm 4 mps 758 mmHg 74%
    23:00 +4°C° 0 mm 4 mps 759 mmHg 74%

    26 September, Wednesday

    Time Temperature Precipitation Wind Pressure Humidity
    00:00 +4°C° 0 mm 4 mps 759 mmHg 75%
    01:00 +4°C° 0 mm 4 mps 759 mmHg 75%
    02:00 +4°C° 0 mm 4 mps 759 mmHg 76%
    03:00 +4°C° 0 mm 4 mps 759 mmHg 76%
    04:00 +3°C° 0 mm 5 mps 758 mmHg 76%
    05:00 +5°C° 0 mm 5 mps 758 mmHg 75%
    06:00 +5°C° 0 mm 5 mps 758 mmHg 76%
    07:00 +5°C° 0 mm 6 mps 758 mmHg 76%
    08:00 +5°C° 0 mm 6 mps 758 mmHg 76%
    09:00 +8°C° 0 mm 7 mps 757 mmHg 72%
    10:00 +9°C° 0 mm 7 mps 757 mmHg 69%
    11:00 +10°C° 0 mm 7 mps 757 mmHg 66%
    12:00 +10°C° 0 mm 7 mps 757 mmHg 64%
    13:00 +10°C° 0 mm 7 mps 756 mmHg 62%
    14:00 +10°C° 0 mm 7 mps 756 mmHg 61%
    15:00 +10°C° 0.1 mm 7 mps 755 mmHg 63%
    16:00 +9°C° 0.1 mm 6 mps 754 mmHg 65%
    17:00 +9°C° 0.1 mm 6 mps 754 mmHg 66%
    18:00 +9°C° 0.2 mm 6 mps 754 mmHg 68%
    19:00 +8°C° 0.2 mm 6 mps 753 mmHg 70%
    20:00 +8°C° 0.2 mm 6 mps 753 mmHg 71%
    21:00 +8°C° 0.1 mm 6 mps 753 mmHg 73%
    22:00 +8°C° 0.1 mm 6 mps 752 mmHg 74%
    23:00 +8°C° 0.1 mm 7 mps 752 mmHg 76%

    27 September, Thursday

    Time Temperature Precipitation Wind Pressure Humidity
    00:00 +8°C° 0.1 mm 7 mps 751 mmHg 75%
    01:00 +8°C° 0.1 mm 7 mps 751 mmHg 74%
    02:00 +8°C° 0.1 mm 7 mps 750 mmHg 73%
    03:00 +8°C° 0 mm 7 mps 750 mmHg 71%
    04:00 +8°C° 0 mm 7 mps 750 mmHg 69%
    05:00 +9°C° 0 mm 7 mps 749 mmHg 67%
    06:00 +9°C° 0.3 mm 7 mps 749 mmHg 70%
    07:00 +9°C° 0.3 mm 7 mps 748 mmHg 72%
    08:00 +9°C° 0.3 mm 7 mps 748 mmHg 74%
    09:00 +10°C° 0.1 mm 7 mps 748 mmHg 72%
    10:00 +11°C° 0.1 mm 8 mps 748 mmHg 69%
    11:00 +12°C° 0.1 mm 8 mps 747 mmHg 66%
    12:00 +13°C° 0 mm 8 mps 747 mmHg 65%
    13:00 +13°C° 0 mm 8 mps 747 mmHg 65%
    14:00 +15°C° 0 mm 8 mps 746 mmHg 64%
    15:00 +13°C° 0.4 mm 8 mps 746 mmHg 70%
    16:00 +12°C° 0.4 mm 8 mps 745 mmHg 76%
    17:00 +10°C° 0.4 mm 7 mps 745 mmHg 82%
    18:00 +11°C° 0.3 mm 7 mps 744 mmHg 80%
    19:00 +11°C° 0.3 mm 7 mps 744 mmHg 79%
    20:00 +11°C° 0.3 mm 7 mps 744 mmHg 78%
    21:00 +11°C° 0 mm 7 mps 743 mmHg 76%
    22:00 +11°C° 0 mm 7 mps 743 mmHg 74%
    23:00 +11°C° 0 mm 7 mps 742 mmHg 72%
    Show more